When you browse on this site, cookies collect data to enhance your experience and personalize the content and advertising you see.
Visit our Privacy Policy to learn more. By continuing to use the site, you agree to this use of cookies and data.
  • en Belgique
  • Liste des pays
  • À 7 jours
  • Température de l'eau
  • Carte satellitaire
  • Carte météo
  • Widgets météo
  • user-avatar
    Se connecter

    Météo par heure à Rokford

    Ce jour, 11 Décembre, Mardi

    Heure Température Précipitation Vent Pression Humidité
    00:00 -5°C° 0 mm 4 m/s 739 mmHg 80%
    01:00 -5°C° 0 mm 4 m/s 739 mmHg 82%
    02:00 -7°C° 0 mm 4 m/s 739 mmHg 84%
    03:00 -7°C° 0 mm 4 m/s 739 mmHg 86%
    04:00 -7°C° 0 mm 4 m/s 738 mmHg 87%
    05:00 -7°C° 0 mm 4 m/s 738 mmHg 88%
    06:00 -7°C° 0 mm 4 m/s 738 mmHg 89%
    07:00 -5°C° 0 mm 3 m/s 738 mmHg 86%
    08:00 -5°C° 0 mm 3 m/s 738 mmHg 83%
    09:00 -5°C° 0 mm 3 m/s 738 mmHg 80%
    10:00 -4°C° 0 mm 3 m/s 738 mmHg 75%
    11:00 -2°C° 0 mm 3 m/s 737 mmHg 70%
    12:00 -1°C° 0 mm 3 m/s 737 mmHg 65%
    13:00 +1°C° 0 mm 2 m/s 737 mmHg 66%
    14:00 +1°C° 0 mm 2 m/s 736 mmHg 66%
    15:00 +2°C° 0 mm 1 m/s 736 mmHg 66%
    16:00 +1°C° 0 mm 1 m/s 736 mmHg 70%
    17:00 +1°C° 0 mm 1 m/s 736 mmHg 73%
    18:00 0°C° 0 mm 1 m/s 736 mmHg 76%
    19:00 -2°C° 0 mm 2 m/s 735 mmHg 78%
    20:00 -2°C° 0 mm 2 m/s 735 mmHg 80%
    21:00 -2°C° 0 mm 2 m/s 735 mmHg 81%
    22:00 -2°C° 0 mm 2 m/s 734 mmHg 84%
    23:00 -2°C° 0 mm 2 m/s 734 mmHg 86%

    Demain, 12 Décembre, Mercredi

    Heure Température Précipitation Vent Pression Humidité
    00:00 -2°C° 0 mm 3 m/s 733 mmHg 88%
    01:00 -2°C° 0 mm 3 m/s 733 mmHg 89%
    02:00 -2°C° 0 mm 3 m/s 732 mmHg 91%
    03:00 -2°C° 0 mm 3 m/s 732 mmHg 92%
    04:00 -2°C° 0.2 mm 3 m/s 731 mmHg 93%
    05:00 -1°C° 0.2 mm 3 m/s 731 mmHg 95%
    06:00 -1°C° 0.2 mm 2 m/s 731 mmHg 96%
    07:00 -1°C° 0.1 mm 3 m/s 731 mmHg 94%
    08:00 -1°C° 0.1 mm 3 m/s 731 mmHg 92%
    09:00 -2°C° 0.1 mm 4 m/s 731 mmHg 91%
    10:00 -2°C° 0 mm 4 m/s 732 mmHg 85%
    11:00 -2°C° 0 mm 5 m/s 732 mmHg 80%
    12:00 -2°C° 0 mm 5 m/s 732 mmHg 75%
    13:00 -2°C° 0 mm 4 m/s 732 mmHg 74%
    14:00 -2°C° 0 mm 4 m/s 733 mmHg 73%
    15:00 -2°C° 0 mm 4 m/s 733 mmHg 72%
    16:00 -1°C° 0 mm 3 m/s 733 mmHg 75%
    17:00 -2°C° 0 mm 3 m/s 734 mmHg 79%
    18:00 -3°C° 0 mm 2 m/s 734 mmHg 83%
    19:00 -3°C° 0 mm 2 m/s 735 mmHg 82%
    20:00 -1°C° 0 mm 1 m/s 735 mmHg 82%
    21:00 -2°C° 0 mm 1 m/s 735 mmHg 82%
    22:00 -1°C° 0 mm 1 m/s 735 mmHg 81%
    23:00 -1°C° 0 mm 1 m/s 736 mmHg 81%

    Après-demain, 13 Décembre, Jeudi

    Heure Température Précipitation Vent Pression Humidité
    00:00 -1°C° 0 mm 1 m/s 736 mmHg 80%
    01:00 -1°C° 0 mm 1 m/s 736 mmHg 82%
    02:00 -3°C° 0 mm 2 m/s 736 mmHg 84%
    03:00 -3°C° 0 mm 2 m/s 736 mmHg 86%
    04:00 -3°C° 0 mm 2 m/s 736 mmHg 88%
    05:00 -3°C° 0 mm 2 m/s 737 mmHg 89%
    06:00 -3°C° 0 mm 2 m/s 737 mmHg 91%
    07:00 -4°C° 0 mm 3 m/s 737 mmHg 89%
    08:00 -2°C° 0 mm 3 m/s 737 mmHg 87%
    09:00 -1°C° 0 mm 3 m/s 737 mmHg 85%
    10:00 0°C° 0 mm 3 m/s 737 mmHg 83%
    11:00 +1°C° 0 mm 3 m/s 737 mmHg 81%
    12:00 +1°C° 0 mm 3 m/s 737 mmHg 80%
    13:00 +1°C° 0.2 mm 3 m/s 737 mmHg 83%
    14:00 +1°C° 0.2 mm 3 m/s 737 mmHg 87%
    15:00 +2°C° 0.2 mm 2 m/s 736 mmHg 91%
    16:00 +2°C° 1.6 mm 2 m/s 736 mmHg 92%
    17:00 0°C° 1.6 mm 3 m/s 736 mmHg 94%
    18:00 0°C° 1.6 mm 3 m/s 737 mmHg 96%
    19:00 0°C° 1.5 mm 3 m/s 737 mmHg 96%
    20:00 0°C° 1.5 mm 3 m/s 737 mmHg 96%
    21:00 0°C° 1.5 mm 3 m/s 737 mmHg 97%
    22:00 0°C° 0.4 mm 3 m/s 736 mmHg 97%
    23:00 0°C° 0.4 mm 3 m/s 736 mmHg 97%

    14 Décembre, Vendredi

    Heure Température Précipitation Vent Pression Humidité
    00:00 0°C° 0.4 mm 3 m/s 736 mmHg 97%
    01:00 0°C° 0.5 mm 3 m/s 736 mmHg 96%
    02:00 0°C° 0.5 mm 3 m/s 736 mmHg 96%
    03:00 -1°C° 0.5 mm 4 m/s 737 mmHg 95%
    04:00 -1°C° 0.1 mm 4 m/s 737 mmHg 95%
    05:00 -1°C° 0.1 mm 4 m/s 737 mmHg 94%
    06:00 -1°C° 0.1 mm 5 m/s 737 mmHg 94%
    07:00 -1°C° 0 mm 5 m/s 738 mmHg 93%
    08:00 -1°C° 0 mm 5 m/s 738 mmHg 93%
    09:00 -1°C° 0 mm 5 m/s 738 mmHg 92%
    10:00 0°C° 0 mm 5 m/s 738 mmHg 92%
    11:00 0°C° 0 mm 5 m/s 738 mmHg 92%
    12:00 +1°C° 0 mm 5 m/s 738 mmHg 91%
    13:00 0°C° 0 mm 5 m/s 737 mmHg 92%
    14:00 0°C° 0 mm 5 m/s 737 mmHg 93%
    15:00 0°C° 0 mm 5 m/s 737 mmHg 93%
    16:00 0°C° 0 mm 5 m/s 737 mmHg 94%
    17:00 -1°C° 0 mm 6 m/s 737 mmHg 94%
    18:00 -1°C° 0 mm 6 m/s 737 mmHg 94%
    19:00 -1°C° 0.1 mm 6 m/s 737 mmHg 94%
    20:00 0°C° 0.1 mm 5 m/s 736 mmHg 94%
    21:00 0°C° 0.1 mm 5 m/s 736 mmHg 94%
    22:00 0°C° 0.3 mm 5 m/s 736 mmHg 94%
    23:00 0°C° 0.3 mm 5 m/s 735 mmHg 94%

    15 Décembre, Samedi

    Heure Température Précipitation Vent Pression Humidité
    00:00 0°C° 0.3 mm 5 m/s 735 mmHg 94%
    01:00 0°C° 0.4 mm 5 m/s 734 mmHg 94%
    02:00 0°C° 0.4 mm 5 m/s 734 mmHg 94%
    03:00 0°C° 0.4 mm 5 m/s 734 mmHg 94%
    04:00 0°C° 0.1 mm 5 m/s 734 mmHg 94%
    05:00 0°C° 0.1 mm 5 m/s 734 mmHg 94%
    06:00 0°C° 0.1 mm 5 m/s 733 mmHg 93%
    07:00 0°C° 0 mm 5 m/s 733 mmHg 93%
    08:00 0°C° 0 mm 5 m/s 734 mmHg 92%
    09:00 0°C° 0 mm 5 m/s 734 mmHg 92%
    10:00 +1°C° 0 mm 5 m/s 733 mmHg 90%
    11:00 +1°C° 0 mm 4 m/s 733 mmHg 89%
    12:00 +1°C° 0 mm 4 m/s 733 mmHg 88%
    13:00 +1°C° 0 mm 4 m/s 733 mmHg 89%
    14:00 +1°C° 0 mm 4 m/s 733 mmHg 90%
    15:00 +1°C° 0 mm 4 m/s 733 mmHg 90%
    16:00 +2°C° 0 mm 3 m/s 733 mmHg 91%
    17:00 +1°C° 0 mm 3 m/s 733 mmHg 92%
    18:00 +1°C° 0 mm 3 m/s 734 mmHg 93%
    19:00 +1°C° 0 mm 3 m/s 734 mmHg 93%
    20:00 +1°C° 0 mm 3 m/s 734 mmHg 93%
    21:00 0°C° 0 mm 3 m/s 734 mmHg 92%
    22:00 0°C° 0 mm 3 m/s 734 mmHg 93%
    23:00 0°C° 0 mm 3 m/s 734 mmHg 93%

    16 Décembre, Dimanche

    Heure Température Précipitation Vent Pression Humidité
    00:00 -1°C° 0 mm 3 m/s 733 mmHg 94%
    01:00 -2°C° 0 mm 4 m/s 734 mmHg 90%
    02:00 -2°C° 0 mm 5 m/s 734 mmHg 87%
    03:00 -4°C° 0 mm 6 m/s 734 mmHg 83%
    04:00 -4°C° 0 mm 6 m/s 734 mmHg 82%
    05:00 -4°C° 0 mm 6 m/s 734 mmHg 81%
    06:00 -4°C° 0 mm 6 m/s 734 mmHg 80%
    07:00 -4°C° 0 mm 7 m/s 735 mmHg 77%
    08:00 -4°C° 0 mm 7 m/s 735 mmHg 73%
    09:00 -5°C° 0 mm 8 m/s 735 mmHg 69%
    10:00 -5°C° 0 mm 8 m/s 735 mmHg 67%
    11:00 -4°C° 0 mm 9 m/s 735 mmHg 64%
    12:00 -4°C° 0 mm 9 m/s 735 mmHg 61%
    13:00 -4°C° 0 mm 9 m/s 735 mmHg 62%
    14:00 -4°C° 0 mm 9 m/s 735 mmHg 62%
    15:00 -4°C° 0 mm 9 m/s 735 mmHg 63%
    16:00 -5°C° 0 mm 9 m/s 736 mmHg 62%
    17:00 -6°C° 0 mm 8 m/s 736 mmHg 61%
    18:00 -7°C° 0 mm 8 m/s 736 mmHg 60%
    19:00 -7°C° 0 mm 8 m/s 736 mmHg 61%
    20:00 -7°C° 0 mm 8 m/s 736 mmHg 61%
    21:00 -7°C° 0 mm 8 m/s 736 mmHg 62%
    22:00 -7°C° 0 mm 8 m/s 737 mmHg 63%
    23:00 -9°C° 0 mm 9 m/s 737 mmHg 64%
    Voir plus